STARLINK-4465, 53496

Orbit data source: Space-Track

STARLINK-4465, 53496 is a payload satellite owned by SpaceX/Seattle (US) in SSO that was launched on Fri, 12 Aug 2022 UTC via an FALCON 9 launch vehicle from the Air Force Western Test Range (AFWTR). Payload-class satellites include a variety of spacecraft equipped with specific instruments for various scientific and technological missions. These include communications satellites like Starlink; space stations such as the ISS; scientific satellites like the Hubble; Earth observation satellites from companies like Planet Labs, Umbra, and HawkEye 360; GPS; miniature CubeSats for education and research; and military/defense satellites.

Loading next visibility...
Identifier
53496, 2022-099AH
Orbit
SSO
Country
Flag of USUS
Related business
Manufacturer
SpaceX/Seattle
Mission
Partially operational Commercial Communications
Bus & Motor
STARLINK, Unknown motor
Mass
300 kg wet, ~275 kg dry
Launch date (UTC)
2022-08-12 (3 years ago)
Launch vehicle
FALCON 9
Launch site
Air Force Western Test Range (AFWTR)
Object type
Payload
Rocket body
Debris
Shape & HBR
Box + 1 Pan, 4.4 m
Radar Cross Section
13.562 m², Large (>1 m²)

Expand to show TLE details & history
Last TLE update: 10 hours ago

TLE from 10 hours ago
0 STARLINK-4465
1 53496U 22099AH  25259.25002315  .00440395  00000-0  60270-2 0  9992
2 53496  97.6557  22.6204 0001493  66.1686 158.5455 15.55885103  5878
Epoch: 2025-09-16T06:00Z
TLE epoch observation values (Epoch: 2025-09-16T06:00:02Z)
Latitude
-44.49068°
Longitude
109.62351°
Altitude
417.759 km
Speed
7.658 km/s
True Right ascension
13h 00m 17s
True Declination
-44° 18' 37"
Sunlit
Object was in daylight at epoch
Visualization orbit readout
Latitude
Unknown
Longitude
Unknown
Altitude
Unknown
Speed
Unknown
Apparent Right ascension
Unknown
Apparent Declination
Unknown
Sunlit
N/A
Visualization observer readout
Local Sidereal Time
08:13:16
Azimuth
Unknown
Elevation
Unknown
Doppler factor
Unknown
Orbital elements
Apogee altitude
397.522 km
Perigee altitude
395.499 km
Semi-major axis
6,774.647 km
Eccentricity
0.00015
Inclination
97.6557°
RAAN
22.6204°
Arg. of periapsis
66.1686°
True anomaly
158.55176°
Mean anomaly
158.5455°
Eccentric anomaly
158.54863°
Mean motion
3.89236 °/min
Orbital period
92.49 mins
BSTAR
0.006027
Loading maneuver chart data...
Computing Atmospheric mass density...
Loading historical data...
Loading historical data...
Loading historical data...
Loading historical data...
Loading historical data...
Loading historical data...
Loading historical data...

Documentation

Showing up to 5 results
|